Weather in Blahovishchenske

Ukraine / Kirovohrad Region     48°19′48″N   30°13′55″E
temp.,
°C
wind,
m/s
gust,
m/s
humid.,
%
clouds,
%
prec.,
mm/h
press.,
hPa
HPBL,
m
15 april, thu
thu1500:00+9sse1375100 0.1 101292
03:00+8n1187100 0.9 101284
06:00+8ene5988100 2.4 1011652
09:00+9ene3581100 3.2 1011566
12:00+9ene2285100 0.2 1011293
15:00+11ssw217045 0.3 1011788
18:00+11wsw447229 0.4 1011692
21:00+8w379182 0.9 1011215
16 april, fri
fri1600:00+8w6991100 0.6 1011437
03:00+8wnw5890100 0.8 1012535
06:00+6w5790100 0.4 1012483
09:00+5w5691100 1.1 1013725
12:00+4w5796100 3.5 1015621
15:00+4w5896100 8.1 1016622
18:00+4w5896100 1.8 1016826
21:00+4w3996100 3.1 1018775
17 april, sat
sat1700:00+4w359659 0.1 1019125
03:00+3wnw229299 0.1 102017
06:00+4s2491100 0.0 1020129
09:00+7sw247639 0.0 1021371
12:00+12ssw455476 0.1 10211647
15:00+12ssw2451100 0.1 10201335
18:00+13sse2247100 0.0 1019447
21:00+11sse2353100 0.0 102040
18 april, sun
sun1800:00+8s377274 0.0 1020222
03:00+5sse117560 0.0 102011
06:00+5se117587 0.0 102011
09:00+9se236095 0.0 1020320
12:00+13ese345059 0.0 10191709
15:00+14ene344498 0.1 10181852
18:00+14e245099 0.0 1018697
21:00+11ne4759100 0.0 1018181
19 april, mon
mon1900:00+10ene3969100 0.0 1018327
03:00+9ene3771100 0.0 1018163
06:00+9ene4878100 0.0 1017246
09:00+10ene567684 0.1 1017517
12:00+13e675892 0.1 10161473
15:00+14ene5752100 0.1 10141762
18:00+13ene71154100 0.0 1012947
21:00+11ene101663100 0.0 1009893